"startDT [UTC]","vpos","CH4 [ppm]","stdev(CH4) [ppm]","CO2 [ppm]","stdev(CO2) [ppm]","H2O_reported [%]","stdev(H2O_reported)","CavityPressure [torr]","CavityTemp [C]","OutletValve","CH4_dry [ppm]","CO2_dry [ppm]","DasTemp [C]","EtalonTemp [C]","WarmBoxTemp [C]","MPVPosition","T_ECpre [C]","T_EC1 [C]","T_EC2 [C]","p_inlet [hPa]","p_in [hPa]","p_out [hPa]","T_inlet [C]","RH_inlet [%]","dwpt_inlet [C]","T_vent [C]","RH_vent [%]","dwpt_vent [C]","flow_vent [l min-1]","flow_inlet [l min-1]","dwpt_sample [C]","T_room [C]"
2016-01-20 00:00:00,0.0,1.92758,0.00029,405.258,0.048,0.0300,0.0017,140.000,45.000,31365.38592,1.92817,405.402,27.923,45.072,45.000,0.00,0.08,-272.76,-272.80,0,506,-958,13.8,1.6,-37.2,14.0,1.7,-36.6,5.73,2.09,-23.5,20.7
2016-01-20 00:01:00,0.0,1.92800,0.00037,405.208,0.047,0.0307,0.0018,139.999,45.000,31364.43352,1.92859,405.360,27.931,45.072,45.000,0.00,0.08,-272.75,-272.80,2,506,-958,13.8,1.6,-37.1,14.0,1.7,-36.6,5.73,1.74,-23.5,20.7
2016-01-20 00:02:00,0.0,1.92853,0.00040,405.160,0.031,0.0314,0.0023,139.999,45.000,31365.49270,1.92909,405.313,27.938,45.072,45.000,0.00,0.08,-272.74,-272.79,0,506,-958,13.8,1.6,-37.2,14.1,1.7,-36.5,5.73,2.07,-23.5,20.7
2016-01-20 00:03:00,0.0,1.92808,0.00048,405.193,0.036,0.0303,0.0016,139.998,45.000,31364.03136,1.92868,405.340,27.939,45.072,45.000,0.00,0.08,-272.75,-272.80,2,506,-958,13.8,1.6,-37.3,14.1,1.6,-36.6,5.73,1.83,-23.5,20.7
2016-01-20 00:04:00,0.0,1.92795,0.00041,405.193,0.041,0.0298,0.0018,139.998,45.000,31363.15785,1.92850,405.339,27.938,45.072,45.000,0.00,0.08,-272.75,-272.80,0,506,-958,13.8,1.6,-37.2,14.1,1.6,-36.6,5.73,1.94,-23.5,20.7
2016-01-20 00:05:00,0.0,1.92792,0.00063,405.194,0.085,0.0313,0.0017,139.998,45.000,31363.88058,1.92855,405.343,27.930,45.072,45.000,0.00,0.08,-272.74,-272.78,2,506,-958,13.8,1.6,-37.1,14.1,1.7,-36.5,5.73,1.96,-23.5,20.7
2016-01-20 00:06:00,0.0,1.92754,0.00060,405.271,0.043,0.0314,0.0017,139.999,45.000,31362.88357,1.92812,405.425,27.933,45.072,45.000,0.00,0.08,-272.74,-272.80,0,506,-958,13.8,1.6,-37.0,14.1,1.7,-36.3,5.73,1.80,-23.5,20.7
2016-01-20 00:07:00,0.0,1.92757,0.00030,405.267,0.053,0.0317,0.0017,139.997,45.000,31361.08942,1.92819,405.422,27.922,45.072,45.000,0.00,0.08,-272.75,-272.80,2,506,-958,13.8,1.6,-36.8,14.1,1.7,-36.2,5.73,2.07,-23.5,20.7
2016-01-20 00:08:00,0.0,1.92780,0.00047,405.270,0.032,0.0314,0.0012,139.998,45.000,31360.98201,1.92837,405.422,27.934,45.072,45.000,0.00,0.08,-272.74,-272.79,0,506,-958,13.7,1.7,-36.7,14.0,1.7,-36.1,5.73,1.73,-23.5,20.7
2016-01-20 00:09:00,0.0,1.92784,0.00048,405.292,0.036,0.0323,0.0017,139.996,45.000,31360.04756,1.92846,405.446,27.938,45.072,45.000,0.00,0.08,-272.74,-272.79,2,506,-958,13.8,1.7,-36.7,14.0,1.7,-36.1,5.73,2.07,-23.5,20.7
2016-01-20 00:10:00,0.0,1.92788,0.00046,405.292,0.041,0.0320,0.0017,140.000,45.000,31361.53721,1.92849,405.451,27.938,45.072,45.000,0.00,0.08,-272.74,-272.80,0,506,-958,13.8,1.7,-36.7,14.0,1.7,-36.1,5.73,1.78,-23.5,20.7
2016-01-20 00:11:00,0.0,1.92749,0.00036,405.340,0.037,0.0329,0.0027,140.001,45.000,31363.06866,1.92812,405.498,27.939,45.072,45.000,0.00,0.08,-272.74,-272.80,2,506,-958,13.8,1.7,-36.6,14.0,1.8,-36.0,5.73,1.98,-23.5,20.7
2016-01-20 00:12:00,0.0,1.92736,0.00051,405.349,0.044,0.0325,0.0019,140.000,45.000,31363.77472,1.92798,405.507,27.938,45.072,45.000,0.00,0.08,-272.74,-272.78,0,506,-958,13.8,1.7,-36.6,14.0,1.8,-35.9,5.73,1.92,-23.5,20.7
2016-01-20 00:13:00,0.0,1.92770,0.00043,405.338,0.037,0.0336,0.0015,139.999,45.000,31363.81455,1.92833,405.502,27.916,45.072,45.000,0.00,0.08,-272.75,-272.80,2,506,-958,13.8,1.7,-36.4,14.0,1.8,-35.9,5.73,1.83,-23.5,20.7
2016-01-20 00:14:00,0.0,1.92753,0.00038,405.423,0.044,0.0339,0.0016,140.002,45.000,31363.42023,1.92816,405.586,27.900,45.072,45.000,0.00,0.08,-272.75,-272.80,0,506,-958,13.8,1.7,-36.3,14.0,1.8,-35.8,5.73,2.05,-23.5,20.7
2016-01-20 00:15:00,0.0,1.92768,0.00040,405.416,0.033,0.0336,0.0012,139.997,45.000,31361.38264,1.92832,405.580,27.888,45.072,45.000,0.00,0.08,-272.74,-272.80,2,506,-958,13.8,1.7,-36.2,14.1,1.8,-35.6,5.73,1.75,-23.5,20.7
2016-01-20 00:16:00,0.0,1.92839,0.00058,405.428,0.038,0.0336,0.0015,140.000,45.000,31362.17236,1.92902,405.591,27.879,45.072,45.000,0.00,0.08,-272.74,-272.79,0,506,-958,13.8,1.8,-36.1,14.1,1.8,-35.5,5.73,2.09,-23.5,20.7
2016-01-20 00:17:00,0.0,1.92858,0.00044,405.431,0.024,0.0337,0.0018,140.000,45.000,31362.02836,1.92918,405.596,27.878,45.072,45.000,0.00,0.08,-272.75,-272.79,2,506,-958,13.8,1.7,-36.2,14.1,1.8,-35.5,5.73,1.79,-23.5,20.7
2016-01-20 00:18:00,0.0,1.92867,0.00045,405.436,0.037,0.0334,0.0015,139.998,45.000,31362.44886,1.92932,405.599,27.897,45.072,45.000,0.00,0.08,-272.75,-272.80,0,506,-958,13.8,1.7,-36.2,14.1,1.8,-35.6,5.73,1.99,-23.5,20.7
2016-01-20 00:19:00,0.0,1.92856,0.00049,405.412,0.038,0.0336,0.0020,139.997,45.000,31362.77796,1.92921,405.576,27.921,45.072,45.001,0.00,0.08,-272.74,-272.79,2,506,-958,13.8,1.7,-36.2,14.0,1.8,-35.6,5.73,1.93,-23.5,20.7
2016-01-20 00:20:00,0.0,1.92846,0.00045,405.436,0.030,0.0344,0.0019,139.999,45.000,31364.25860,1.92910,405.602,27.912,45.072,45.000,0.00,0.08,-272.74,-272.80,0,506,-958,13.8,1.8,-36.1,14.0,1.8,-35.5,5.73,1.84,-23.5,20.7
2016-01-20 00:21:00,0.0,1.92829,0.00031,405.423,0.037,0.0342,0.0019,139.997,45.000,31365.16112,1.92891,405.589,27.936,45.072,45.000,0.00,0.08,-272.75,-272.80,2,506,-958,13.8,1.8,-35.9,14.1,1.9,-35.4,5.73,2.08,-23.5,20.7
2016-01-20 00:22:00,0.0,1.92875,0.00039,405.441,0.034,0.0347,0.0019,140.000,45.000,31365.12298,1.92942,405.612,27.938,45.072,45.000,0.00,0.08,-272.74,-272.80,0,506,-958,13.8,1.8,-35.9,14.1,1.9,-35.3,5.73,1.76,-23.5,20.7
2016-01-20 00:23:00,0.0,1.92917,0.00039,405.434,0.037,0.0341,0.0019,139.996,45.000,31360.80075,1.92982,405.600,27.938,45.072,45.000,0.00,0.08,-272.75,-272.79,1,506,-958,13.8,1.8,-36.0,14.1,1.9,-35.3,5.73,2.09,-23.5,20.7
2016-01-20 00:24:00,0.0,1.92891,0.00037,405.427,0.035,0.0348,0.0021,140.000,45.000,31363.29393,1.92959,405.597,27.938,45.072,45.000,0.00,0.08,-272.75,-272.80,0,506,-958,13.8,1.8,-36.0,14.1,1.9,-35.4,5.73,1.79,-23.5,20.7
2016-01-20 00:25:00,0.0,1.92887,0.00031,405.437,0.030,0.0340,0.0017,140.000,45.000,31363.88066,1.92949,405.603,27.938,45.072,45.000,0.00,0.08,-272.74,-272.80,1,506,-958,13.8,1.8,-36.0,14.1,1.9,-35.3,5.73,1.97,-23.5,20.7
2016-01-20 00:26:00,0.0,1.92871,0.00034,405.455,0.031,0.0338,0.0014,140.000,45.000,31365.10824,1.92935,405.619,27.927,45.072,45.000,0.00,0.08,-272.75,-272.79,1,506,-958,13.8,1.8,-36.0,14.1,1.9,-35.3,5.73,1.89,-23.5,20.7
2016-01-20 00:27:00,0.0,1.92852,0.00034,405.464,0.035,0.0350,0.0018,139.998,45.000,31363.63162,1.92920,405.634,27.917,45.072,45.000,0.00,0.08,-272.74,-272.80,1,506,-958,13.8,1.8,-36.0,14.0,1.9,-35.3,5.73,1.78,-23.5,20.7
2016-01-20 00:28:00,0.0,1.92867,0.00034,405.473,0.031,0.0352,0.0015,139.999,45.000,31363.28983,1.92932,405.643,27.933,45.072,45.000,0.00,0.08,-272.75,-272.79,1,506,-958,13.8,1.8,-35.9,14.0,1.9,-35.3,5.73,2.02,-23.5,20.7
2016-01-20 00:29:00,0.0,1.92893,0.00044,405.495,0.031,0.0346,0.0026,139.997,45.000,31361.53647,1.92959,405.664,27.932,45.072,45.000,0.00,0.08,-272.74,-272.79,1,506,-958,13.8,1.8,-35.9,14.0,1.9,-35.3,5.73,1.68,-23.5,20.7
2016-01-20 00:30:00,0.0,1.92896,0.00035,405.507,0.032,0.0343,0.0022,139.999,45.000,31361.29324,1.92959,405.675,27.936,45.072,45.000,0.00,0.08,-272.75,-272.80,1,506,-958,13.8,1.8,-36.0,14.0,1.9,-35.3,5.73,1.99,-23.5,20.7
2016-01-20 00:31:00,0.0,1.92883,0.00034,405.507,0.024,0.0344,0.0018,139.998,45.000,31362.30821,1.92950,405.674,27.934,45.072,45.000,0.00,0.08,-272.76,-272.80,1,506,-958,13.8,1.8,-36.0,14.1,1.9,-35.4,5.73,1.65,-23.5,20.7
2016-01-20 00:32:00,0.0,1.92905,0.00039,405.492,0.036,0.0347,0.0015,139.998,45.000,31361.98008,1.92968,405.661,27.939,45.072,45.000,0.00,0.08,-272.75,-272.80,1,506,-958,13.8,1.8,-36.1,14.1,1.8,-35.5,5.73,1.87,-23.5,20.7
2016-01-20 00:33:00,0.0,1.92892,0.00061,405.479,0.031,0.0343,0.0016,139.999,45.000,31363.41198,1.92958,405.648,27.938,45.072,45.000,0.00,0.08,-272.74,-272.79,1,506,-958,13.8,1.8,-36.1,14.1,1.8,-35.5,5.73,1.90,-23.5,20.7
2016-01-20 00:34:00,0.0,1.92842,0.00028,405.520,0.036,0.0347,0.0018,140.002,45.000,31364.59148,1.92908,405.687,27.932,45.072,45.000,0.00,0.08,-272.74,-272.80,1,506,-958,13.8,1.8,-36.1,14.1,1.8,-35.5,5.73,1.76,-23.5,20.7
2016-01-20 00:35:00,0.0,1.92864,0.00044,405.517,0.037,0.0340,0.0016,140.000,45.000,31363.75161,1.92926,405.683,27.920,45.072,45.000,0.00,0.08,-272.75,-272.79,1,506,-958,13.8,1.8,-36.0,14.0,1.8,-35.5,5.73,2.02,-23.4,20.7
2016-01-20 00:36:00,0.0,1.92852,0.00039,405.550,0.018,0.0354,0.0020,139.995,45.000,31361.67377,1.92921,405.722,27.918,45.072,45.000,0.00,0.08,-272.74,-272.79,2,506,-958,13.8,1.8,-36.0,14.0,1.9,-35.3,5.73,1.69,-23.5,20.7
2016-01-20 00:37:00,0.0,1.92887,0.00031,405.549,0.033,0.0346,0.0015,139.998,45.000,31363.72582,1.92955,405.719,27.934,45.072,45.000,0.00,0.08,-272.75,-272.80,0,506,-958,13.8,1.8,-36.0,14.0,1.9,-35.4,5.73,1.96,-23.5,20.7
2016-01-20 00:38:00,0.0,1.92910,0.00037,405.567,0.036,0.0337,0.0024,139.998,45.000,31362.67584,1.92971,405.730,27.938,45.072,45.000,0.00,0.08,-272.75,-272.80,2,506,-958,13.8,1.8,-36.0,14.1,1.9,-35.3,5.73,1.72,-23.4,20.7
2016-01-20 00:39:00,0.0,1.92890,0.00037,405.504,0.032,0.0347,0.0015,139.999,45.000,31363.72257,1.92959,405.675,27.937,45.072,45.000,0.00,0.08,-272.74,-272.80,0,506,-958,13.8,1.8,-35.9,14.1,1.9,-35.4,5.73,1.83,-23.4,20.7
2016-01-20 00:40:00,0.0,1.92897,0.00043,405.552,0.039,0.0346,0.0014,140.001,45.000,31363.29587,1.92961,405.719,27.938,45.072,45.000,0.00,0.08,-272.75,-272.80,2,506,-958,13.8,1.8,-35.9,14.1,1.9,-35.3,5.73,1.91,-23.5,20.7
2016-01-20 00:41:00,0.0,1.92924,0.00035,405.523,0.035,0.0340,0.0018,140.002,45.000,31363.91502,1.92988,405.691,27.938,45.072,45.000,0.00,0.08,-272.75,-272.81,0,506,-958,13.8,1.8,-36.0,14.1,1.9,-35.3,5.73,1.70,-23.4,20.7
2016-01-20 00:42:00,0.0,1.92951,0.00038,405.510,0.031,0.0339,0.0019,139.996,45.000,31363.01525,1.93013,405.675,27.938,45.072,45.000,0.00,0.08,-272.75,-272.79,2,506,-958,13.8,1.8,-36.0,14.1,1.9,-35.4,5.73,2.03,-23.5,20.7
2016-01-20 00:43:00,0.0,1.92959,0.00037,405.530,0.038,0.0345,0.0024,139.998,45.000,31363.14860,1.93028,405.698,27.940,45.072,45.000,0.00,0.08,-272.74,-272.79,0,506,-958,13.8,1.7,-36.2,14.1,1.8,-35.5,5.73,1.72,-23.5,20.7
2016-01-20 00:44:00,0.0,1.92943,0.00037,405.522,0.034,0.0340,0.0021,139.998,45.000,31363.46563,1.93005,405.688,27.942,45.072,45.000,0.00,0.08,-272.75,-272.80,2,506,-958,13.8,1.7,-36.2,14.1,1.8,-35.5,5.73,1.98,-23.4,20.7
2016-01-20 00:45:00,0.0,1.92930,0.00045,405.486,0.031,0.0343,0.0017,140.000,45.000,31364.95538,1.92998,405.653,27.938,45.072,45.000,0.00,0.08,-272.75,-272.80,0,506,-958,13.8,1.8,-36.1,14.0,1.8,-35.4,5.73,1.79,-23.5,20.7
2016-01-20 00:46:00,0.0,1.92920,0.00029,405.536,0.027,0.0343,0.0018,139.997,45.000,31364.75493,1.92985,405.701,27.938,45.072,45.000,0.00,0.08,-272.74,-272.79,2,506,-958,13.8,1.8,-36.1,14.1,1.8,-35.5,5.73,1.84,-23.5,20.7
2016-01-20 00:47:00,0.0,1.92914,0.00037,405.578,0.050,0.0339,0.0021,139.997,45.000,31363.51908,1.92979,405.742,27.939,45.072,45.000,0.00,0.08,-272.75,-272.80,0,506,-958,13.8,1.8,-36.1,14.0,1.8,-35.5,5.73,1.99,-23.4,20.7
2016-01-20 00:48:00,0.0,1.92922,0.00029,405.608,0.030,0.0341,0.0016,139.998,45.000,31364.66668,1.92985,405.774,27.938,45.072,45.000,0.00,0.08,-272.74,-272.80,2,506,-958,13.8,1.8,-36.1,14.1,1.8,-35.5,5.73,1.73,-23.4,20.7
2016-01-20 00:49:00,0.0,1.92936,0.00026,405.635,0.024,0.0337,0.0018,139.997,45.000,31364.72704,1.93000,405.799,27.938,45.072,45.000,0.00,0.08,-272.74,-272.79,0,506,-958,13.8,1.7,-36.2,14.1,1.8,-35.5,5.73,2.05,-23.5,20.7
2016-01-20 00:50:00,0.0,1.92921,0.00040,405.568,0.040,0.0334,0.0019,139.998,45.000,31366.91781,1.92984,405.732,27.936,45.072,45.000,0.00,0.08,-272.74,-272.80,2,506,-958,13.8,1.7,-36.3,14.1,1.8,-35.6,5.73,1.75,-23.5,20.7
2016-01-20 00:51:00,0.0,1.92957,0.00032,405.492,0.032,0.0344,0.0015,140.000,45.000,31367.50976,1.93022,405.661,27.945,45.072,45.000,0.00,0.08,-272.75,-272.80,0,506,-958,13.8,1.7,-36.3,14.1,1.8,-35.7,5.73,1.96,-23.4,20.7
2016-01-20 00:52:00,0.0,1.92921,0.00032,405.498,0.021,0.0339,0.0019,139.999,45.000,31366.33842,1.92987,405.663,27.947,45.072,45.000,0.00,0.08,-272.74,-272.80,1,506,-958,13.8,1.7,-36.2,14.1,1.8,-35.6,5.73,1.90,-23.4,20.7
2016-01-20 00:53:00,0.0,1.92919,0.00042,405.512,0.032,0.0332,0.0017,139.998,45.000,31366.58873,1.92982,405.673,27.962,45.072,45.000,0.00,0.08,-272.74,-272.80,1,506,-958,13.8,1.7,-36.3,14.1,1.8,-35.6,5.73,1.80,-23.4,20.7
2016-01-20 00:54:00,0.0,1.92914,0.00041,405.500,0.031,0.0335,0.0014,140.001,45.000,31367.96335,1.92978,405.664,27.977,45.072,45.000,0.00,0.08,-272.75,-272.80,1,506,-958,13.8,1.7,-36.3,14.0,1.8,-35.6,5.73,2.04,-23.5,20.7
2016-01-20 00:55:00,0.0,1.92933,0.00034,405.525,0.032,0.0333,0.0017,139.997,45.000,31365.75735,1.92996,405.687,27.989,45.072,45.000,0.00,0.08,-272.75,-272.80,1,506,-958,13.8,1.7,-36.2,14.0,1.8,-35.6,5.73,1.72,-23.5,20.7
2016-01-20 00:56:00,0.0,1.92929,0.00038,405.529,0.053,0.0341,0.0021,139.998,45.000,31365.62929,1.92993,405.694,27.992,45.072,45.000,0.00,0.08,-272.75,-272.79,1,506,-958,13.8,1.8,-36.1,14.1,1.8,-35.5,5.73,2.06,-23.5,20.7
2016-01-20 00:57:00,0.0,1.92893,0.00031,405.550,0.029,0.0338,0.0014,139.999,45.000,31366.85405,1.92957,405.716,27.970,45.072,45.000,0.00,0.08,-272.75,-272.79,1,506,-958,13.8,1.8,-36.2,14.0,1.8,-35.5,5.73,1.82,-23.4,20.7
2016-01-20 00:58:00,0.0,1.92892,0.00036,405.539,0.037,0.0338,0.0014,139.996,45.000,31366.10143,1.92957,405.703,27.959,45.072,45.000,0.00,0.08,-272.74,-272.80,1,506,-958,13.8,1.8,-36.1,14.1,1.8,-35.5,5.73,1.90,-23.5,20.7
2016-01-20 00:59:00,0.0,1.92909,0.00036,405.562,0.030,0.0346,0.0030,139.998,45.000,31364.94182,1.92974,405.731,27.972,45.072,45.000,0.00,0.08,-272.74,-272.79,1,506,-958,13.8,1.8,-36.1,14.1,1.8,-35.5,5.73,1.98,-23.4,20.7
2016-01-20 01:00:00,0.0,1.92888,0.00032,405.509,0.031,0.0343,0.0020,140.001,45.000,31366.14260,1.92954,405.677,27.968,45.072,45.000,0.00,0.08,-272.74,-272.79,0,506,-958,13.8,1.8,-36.1,14.0,1.8,-35.5,5.73,1.76,-23.4,20.7
2016-01-20 01:01:00,0.0,1.92916,0.00030,405.556,0.037,0.0340,0.0019,139.998,45.000,31362.71849,1.92979,405.721,27.967,45.072,45.000,0.00,0.08,-272.75,-272.80,2,506,-958,13.8,1.8,-36.1,14.0,1.8,-35.5,5.73,2.07,-23.4,20.7
2016-01-20 01:02:00,0.0,1.92903,0.00044,405.530,0.023,0.0341,0.0022,139.999,45.000,31364.19080,1.92967,405.696,27.977,45.072,45.000,0.00,0.08,-272.74,-272.79,0,506,-958,13.8,1.8,-36.1,14.0,1.9,-35.4,5.73,1.74,-23.4,20.7
2016-01-20 01:03:00,0.0,1.92900,0.00038,405.536,0.030,0.0332,0.0016,139.997,45.000,31363.14917,1.92967,405.697,27.946,45.072,45.000,0.00,0.08,-272.74,-272.80,2,506,-958,13.8,1.8,-36.1,14.0,1.8,-35.5,5.73,1.97,-23.5,20.7
2016-01-20 01:04:00,0.0,1.92874,0.00038,405.540,0.036,0.0339,0.0014,140.001,45.000,31365.17768,1.92936,405.705,27.954,45.072,45.000,0.00,0.08,-272.75,-272.80,0,506,-958,13.8,1.7,-36.2,14.0,1.8,-35.5,5.73,1.85,-23.4,20.7
2016-01-20 01:05:00,0.0,1.92895,0.00036,405.527,0.029,0.0334,0.0014,140.002,45.000,31364.44790,1.92959,405.690,27.960,45.072,45.000,0.00,0.08,-272.74,-272.80,2,506,-958,13.8,1.7,-36.3,14.1,1.8,-35.4,5.73,1.81,-23.4,20.7
2016-01-20 01:06:00,0.0,1.92909,0.00046,405.552,0.031,0.0331,0.0016,139.997,45.000,31363.19672,1.92972,405.713,27.978,45.072,45.000,0.00,0.08,-272.74,-272.79,0,506,-958,13.8,1.7,-36.2,14.1,1.8,-35.6,5.73,2.01,-23.5,20.7
2016-01-20 01:07:00,0.0,1.92861,0.00039,405.562,0.038,0.0343,0.0015,139.999,45.000,31365.63183,1.92927,405.729,27.995,45.072,45.000,0.00,0.08,-272.75,-272.80,2,506,-958,13.8,1.7,-36.2,14.1,1.8,-35.6,5.73,1.72,-23.5,20.7
2016-01-20 01:08:00,0.0,1.92873,0.00038,405.557,0.039,0.0335,0.0016,140.000,45.000,31365.37101,1.92936,405.719,28.000,45.072,45.000,0.00,0.08,-272.75,-272.79,0,506,-958,13.8,1.7,-36.2,14.1,1.8,-35.5,5.73,2.05,-23.4,20.7
2016-01-20 01:09:00,0.0,1.92888,0.00032,405.554,0.029,0.0335,0.0017,139.998,45.000,31364.10192,1.92951,405.718,28.000,45.072,45.000,0.00,0.08,-272.75,-272.79,2,506,-958,13.8,1.7,-36.2,14.1,1.8,-35.6,5.73,1.78,-23.4,20.7
2016-01-20 01:10:00,0.0,1.92905,0.00032,405.560,0.032,0.0336,0.0014,139.998,45.000,31361.44408,1.92969,405.724,28.000,45.072,45.000,0.00,0.08,-272.75,-272.80,0,506,-958,13.8,1.7,-36.2,14.1,1.8,-35.6,5.73,1.88,-23.4,20.7
2016-01-20 01:11:00,0.0,1.92881,0.00039,405.571,0.036,0.0340,0.0014,139.998,45.000,31362.57512,1.92946,405.736,28.000,45.072,45.000,0.00,0.08,-272.76,-272.80,2,506,-958,13.8,1.7,-36.2,14.1,1.8,-35.6,5.73,1.92,-23.4,20.7
2016-01-20 01:12:00,0.0,1.92889,0.00040,405.546,0.033,0.0334,0.0017,140.000,45.000,31363.67616,1.92953,405.710,27.976,45.072,45.000,0.00,0.08,-272.74,-272.80,1,506,-958,13.8,1.7,-36.2,14.0,1.8,-35.6,5.73,1.69,-23.4,20.7
2016-01-20 01:13:00,0.0,1.92927,0.00032,405.547,0.030,0.0337,0.0019,140.000,45.000,31363.63307,1.92989,405.710,27.947,45.072,45.000,0.00,0.08,-272.75,-272.79,1,506,-958,13.8,1.7,-36.2,14.1,1.8,-35.5,5.73,2.01,-23.4,20.7
2016-01-20 01:14:00,0.0,1.92904,0.00033,405.524,0.030,0.0334,0.0019,139.997,45.000,31364.07535,1.92969,405.688,27.938,45.072,45.000,0.00,0.08,-272.75,-272.80,1,506,-958,13.8,1.7,-36.2,14.0,1.8,-35.6,5.73,1.71,-23.4,20.7
2016-01-20 01:15:00,0.0,1.92899,0.00028,405.526,0.026,0.0335,0.0014,139.998,45.000,31364.31465,1.92961,405.689,27.930,45.072,45.000,0.00,0.08,-272.75,-272.80,1,506,-958,13.8,1.7,-36.2,14.1,1.8,-35.6,5.73,1.93,-23.4,20.7
2016-01-20 01:16:00,0.0,1.92895,0.00034,405.537,0.033,0.0337,0.0019,140.000,45.000,31365.00612,1.92959,405.703,27.931,45.073,45.001,0.00,0.08,-272.74,-272.80,1,506,-958,13.8,1.8,-36.1,14.1,1.8,-35.5,5.73,1.85,-23.4,20.7
2016-01-20 01:17:00,0.0,1.92883,0.00034,405.553,0.032,0.0342,0.0016,140.000,45.000,31367.14741,1.92949,405.719,27.903,45.072,45.000,0.00,0.08,-272.74,-272.80,1,506,-958,13.8,1.8,-36.1,14.1,1.8,-35.5,5.73,1.75,-23.4,20.7
2016-01-20 01:18:00,0.0,1.92895,0.00037,405.549,0.036,0.0334,0.0020,139.997,45.000,31367.02799,1.92956,405.711,27.888,45.073,45.001,0.00,0.08,-272.75,-272.80,1,506,-958,13.8,1.8,-36.1,14.1,1.8,-35.5,5.73,2.01,-23.4,20.7
2016-01-20 01:19:00,0.0,1.92885,0.00038,405.561,0.027,0.0337,0.0021,140.000,45.000,31369.12849,1.92953,405.725,27.902,45.072,45.000,0.00,0.08,-272.74,-272.79,0,506,-958,13.8,1.8,-36.0,14.1,1.8,-35.5,5.73,1.70,-23.4,20.7
2016-01-20 01:20:00,0.0,1.92888,0.00034,405.550,0.027,0.0337,0.0018,139.999,45.000,31368.25082,1.92951,405.714,27.933,45.072,45.000,0.00,0.08,-272.75,-272.80,2,506,-958,13.8,1.8,-36.1,14.1,1.8,-35.5,5.73,2.00,-23.4,20.8
2016-01-20 01:21:00,0.0,1.92886,0.00037,405.570,0.039,0.0339,0.0017,139.999,45.000,31367.92492,1.92950,405.735,27.938,45.072,45.000,0.00,0.08,-272.75,-272.80,0,506,-958,13.8,1.8,-36.1,14.1,1.8,-35.5,5.73,1.78,-23.5,20.8
2016-01-20 01:22:00,0.0,1.92911,0.00038,405.599,0.018,0.0337,0.0018,139.997,45.000,31366.93416,1.92976,405.764,27.938,45.072,45.000,0.00,0.08,-272.75,-272.80,2,506,-958,13.8,1.8,-36.1,14.0,1.9,-35.4,5.73,1.80,-23.4,20.7
2016-01-20 01:23:00,0.0,1.92901,0.00031,405.595,0.048,0.0340,0.0023,139.998,45.000,31368.91855,1.92965,405.760,27.954,45.072,45.000,0.00,0.08,-272.75,-272.79,0,506,-958,13.8,1.8,-35.9,14.0,1.9,-35.4,5.73,1.95,-23.4,20.7
2016-01-20 01:24:00,0.0,1.92883,0.00032,405.599,0.036,0.0343,0.0020,140.001,45.000,31369.34419,1.92949,405.768,27.977,45.072,45.000,0.00,0.08,-272.74,-272.80,2,506,-958,13.8,1.8,-35.9,14.1,1.9,-35.4,5.73,1.69,-23.4,20.7
2016-01-20 01:25:00,0.0,1.92845,0.00040,405.621,0.042,0.0342,0.0012,140.000,45.000,31370.72549,1.92910,405.786,27.996,45.072,45.000,0.00,0.08,-272.75,-272.80,0,506,-958,13.8,1.8,-36.0,14.1,1.9,-35.4,5.73,2.01,-23.4,20.7
2016-01-20 01:26:00,0.0,1.92870,0.00040,405.658,0.042,0.0335,0.0017,139.999,45.000,31368.31143,1.92930,405.821,28.000,45.071,44.999,0.00,0.08,-272.75,-272.79,2,506,-958,13.8,1.7,-36.2,14.0,1.8,-35.5,5.73,1.75,-23.4,20.7
2016-01-20 01:27:00,0.0,1.92897,0.00032,405.680,0.043,0.0327,0.0019,139.998,45.000,31367.04294,1.92960,405.839,28.000,45.071,44.999,0.00,0.08,-272.75,-272.80,0,506,-958,13.8,1.7,-36.4,14.1,1.8,-35.8,5.73,1.88,-23.4,20.7
2016-01-20 01:28:00,0.0,1.92887,0.00030,405.623,0.030,0.0333,0.0022,140.000,45.000,31367.28518,1.92950,405.785,28.000,45.071,44.999,0.00,0.08,-272.75,-272.79,2,506,-958,13.8,1.7,-36.4,14.1,1.8,-35.8,5.73,1.93,-23.4,20.7
2016-01-20 01:29:00,0.0,1.92877,0.00037,405.664,0.028,0.0341,0.0018,139.999,45.000,31367.34900,1.92943,405.830,28.000,45.072,45.000,0.00,0.08,-272.74,-272.80,1,506,-958,13.8,1.7,-36.2,14.1,1.8,-35.7,5.73,1.75,-23.4,20.7
2016-01-20 01:30:00,0.0,1.93002,0.00114,405.728,0.083,0.0339,0.0017,140.000,45.000,31367.04864,1.93060,405.891,27.998,45.072,45.000,0.00,0.08,-272.75,-272.79,1,506,-958,13.8,1.7,-36.2,14.1,1.8,-35.5,5.73,2.05,-23.4,20.7
2016-01-20 01:31:00,0.0,1.92927,0.00041,405.688,0.060,0.0335,0.0024,140.001,45.000,31367.08716,1.92996,405.855,27.999,45.072,45.000,0.00,0.08,-272.75,-272.80,1,506,-958,13.8,1.7,-36.3,14.1,1.8,-35.6,5.73,1.74,-23.4,20.7
2016-01-20 01:32:00,0.0,1.92879,0.00027,405.644,0.036,0.0324,0.0018,139.997,45.000,31366.75378,1.92941,405.800,27.995,45.072,45.000,0.00,0.08,-272.74,-272.80,1,506,-958,13.8,1.7,-36.5,14.1,1.8,-35.8,5.73,1.97,-23.4,20.7
2016-01-20 01:33:00,0.0,1.92857,0.00035,405.643,0.035,0.0327,0.0015,139.998,45.000,31366.46450,1.92919,405.803,27.987,45.072,45.000,0.00,0.08,-272.75,-272.79,1,506,-958,13.8,1.7,-36.7,14.1,1.8,-35.9,5.73,1.88,-23.4,20.7
2016-01-20 01:34:00,0.0,1.92894,0.00036,405.661,0.032,0.0318,0.0020,139.998,45.000,31362.89991,1.92953,405.816,27.996,45.072,45.000,0.00,0.08,-272.74,-272.80,1,506,-958,13.8,1.7,-36.7,14.1,1.7,-36.1,5.73,1.79,-23.4,20.7
2016-01-20 01:35:00,0.0,1.92883,0.00034,405.659,0.023,0.0315,0.0017,139.999,45.000,31365.36014,1.92947,405.812,27.996,45.072,45.000,0.00,0.08,-272.75,-272.80,2,506,-958,13.8,1.7,-36.7,14.1,1.7,-36.1,5.73,2.05,-23.4,20.7
2016-01-20 01:36:00,0.0,1.92885,0.00056,405.662,0.024,0.0324,0.0021,140.000,45.000,31365.93315,1.92944,405.820,27.976,45.072,45.000,0.00,0.08,-272.74,-272.79,0,506,-958,13.9,1.7,-36.7,14.1,1.7,-36.1,5.73,1.73,-23.4,20.8
2016-01-20 01:37:00,0.0,1.92881,0.00043,405.648,0.029,0.0324,0.0017,139.999,45.000,31365.45583,1.92946,405.804,27.996,45.072,45.000,0.00,0.08,-272.75,-272.79,2,506,-958,13.8,1.7,-36.6,14.1,1.8,-36.0,5.73,2.00,-23.4,20.7
2016-01-20 01:38:00,0.0,1.92891,0.00038,405.679,0.028,0.0322,0.0022,139.999,45.000,31364.25774,1.92948,405.837,27.998,45.072,45.000,0.00,0.08,-272.76,-272.79,0,506,-958,13.8,1.6,-36.7,14.1,1.7,-36.0,5.73,1.83,-23.4,20.7
2016-01-20 01:39:00,0.0,1.92899,0.00037,405.674,0.034,0.0324,0.0014,140.002,45.000,31365.55409,1.92961,405.833,27.998,45.072,45.000,0.00,0.08,-272.74,-272.80,2,506,-958,13.9,1.7,-36.7,14.1,1.7,-36.1,5.73,1.85,-23.4,20.8
2016-01-20 01:40:00,0.0,1.92892,0.00027,405.673,0.039,0.0329,0.0017,140.000,45.000,31364.73949,1.92957,405.832,27.997,45.072,45.000,0.00,0.08,-272.74,-272.78,0,506,-958,13.9,1.7,-36.4,14.1,1.8,-35.9,5.73,2.04,-23.4,20.8
2016-01-20 01:41:00,0.0,1.92843,0.00042,405.679,0.035,0.0332,0.0016,139.997,45.000,31363.46511,1.92905,405.841,27.997,45.072,45.000,0.00,0.08,-272.74,-272.80,2,506,-958,13.8,1.7,-36.3,14.0,1.8,-35.8,5.73,1.75,-23.4,20.8
2016-01-20 01:42:00,0.0,1.92882,0.00032,405.684,0.028,0.0338,0.0014,139.998,45.000,31363.97908,1.92946,405.849,27.999,45.072,45.000,0.00,0.08,-272.75,-272.79,0,506,-958,13.8,1.7,-36.2,14.0,1.8,-35.7,5.73,2.06,-23.4,20.8
2016-01-20 01:43:00,0.0,1.92895,0.00034,405.660,0.030,0.0330,0.0016,140.001,45.000,31365.85785,1.92956,405.821,27.993,45.072,45.000,0.00,0.08,-272.74,-272.78,2,506,-958,13.8,1.7,-36.2,14.0,1.8,-35.6,5.73,1.84,-23.4,20.8
2016-01-20 01:44:00,0.0,1.92944,0.00055,405.725,0.068,0.0334,0.0016,139.998,45.000,31367.19494,1.93005,405.888,27.991,45.072,45.000,0.00,0.08,-272.74,-272.80,0,506,-958,13.8,1.7,-36.2,14.0,1.8,-35.6,5.73,1.89,-23.4,20.8
2016-01-20 01:45:00,0.0,1.92951,0.00034,405.727,0.049,0.0317,0.0021,139.999,45.000,31368.55111,1.93013,405.881,28.000,45.072,45.000,0.00,0.08,-272.75,-272.80,1,506,-958,13.8,1.7,-36.5,14.0,1.8,-35.8,5.73,2.03,-23.4,20.8